Theta_e
335 338 339 342 342 342 344 343 345 344 343 344 344 344 343 343 343 342 342 341 341 342 341 340 339 341 341 340 342 341 341 342 342 342 341 341 340 339 340 340 339 338 337 337 338 338 338 337 336 335 334 333 332 331 331 331 330 329 328 327 328 329 329 329 331 332 333 335 337 338 338 337 335 334 332 331 333 333 335 335 335 333 333 332 336
334 338 339 340 341 342 342 344 344 343 343 344 344 344 343 342 342 342 341 341 341 341 343 343 342 342 342 342 342 342 342 342 342 341 341 340 339 338 337 337 337 336 336 335 335 335 334 333 332 331 331 330 330 329 329 328 327 326 325 323 323 323 322 325 325 327 329 332 335 337 338 339 336 332 333 333 333 334 335 336 336 333 330 337 337
338 339 340 340 343 343 342 345 344 343 344 343 343 342 342 342 341 341 341 340 341 340 341 343 342 342 342 342 342 342 342 341 340 340 339 339 338 338 337 335 334 333 334 332 330 330 330 330 330 329 329 329 329 328 327 327 325 324 324 322 322 320 319 319 320 323 326 329 331 334 337 336 336 332 334 336 337 336 335 337 336 336 332 337 336
337 338 340 341 341 341 342 343 343 343 343 343 342 342 342 342 342 341 340 340 339 339 339 340 342 342 342 342 342 342 341 340 338 338 337 336 336 335 334 333 332 331 330 328 328 328 328 328 329 328 329 328 327 326 326 324 323 323 322 322 321 321 318 318 320 321 324 325 326 332 332 323 330 336 337 337 337 336 335 335 336 336 336 336 337
338 340 341 340 341 341 341 342 342 343 343 343 342 342 342 341 341 341 340 339 339 339 338 338 339 341 341 341 341 340 339 338 337 335 335 334 333 332 331 330 329 328 328 327 328 328 328 328 328 328 327 326 325 325 324 323 322 322 322 321 321 320 319 317 319 321 321 322 325 326 322 320 320 327 337 336 337 335 335 335 335 335 336 336 338
336 339 340 341 340 341 342 342 341 342 343 343 343 342 341 341 341 340 340 339 338 339 339 338 338 338 339 340 340 339 337 336 335 334 332 331 330 329 328 328 327 327 327 327 328 327 327 326 325 325 325 324 324 324 323 322 322 322 321 321 320 319 319 318 319 320 317 315 316 314 315 312 311 316 332 334 334 333 334 334 335 337 335 336 337
333 336 340 340 340 340 342 344 343 344 343 343 343 342 341 341 340 339 338 338 338 337 338 338 337 337 337 337 337 337 335 333 331 330 329 328 328 327 327 327 327 326 326 326 326 326 325 325 324 324 324 324 323 323 323 322 321 321 321 320 319 319 318 318 318 318 313 308 301 306 307 306 307 309 324 330 331 331 331 332 334 335 336 336 336
332 334 340 339 339 341 343 343 343 343 343 343 342 342 341 341 340 339 338 338 337 337 337 336 336 336 334 334 334 333 331 330 329 328 327 328 327 326 325 325 325 325 324 324 324 324 324 323 323 322 323 322 322 322 321 321 320 319 320 319 319 318 317 317 318 314 311 301 300 301 301 303 303 305 324 328 329 330 330 330 331 333 335 335 333
327 333 339 339 340 341 341 341 341 341 342 342 341 341 341 340 338 337 337 336 336 335 335 335 334 333 332 331 330 330 329 328 328 327 327 327 326 325 325 324 324 324 324 324 323 322 322 322 322 321 322 322 321 320 320 319 319 319 318 318 318 316 315 315 317 311 305 302 300 300 301 303 302 305 321 327 329 329 329 328 329 330 330 332 333
325 332 335 337 337 339 340 340 340 341 340 341 340 341 340 338 337 336 335 334 334 333 332 332 332 331 330 329 328 328 327 328 327 327 327 327 327 325 324 324 323 323 322 322 322 322 321 321 320 320 319 319 319 319 319 318 318 317 317 317 316 315 314 314 316 307 302 301 300 301 303 311 303 312 320 326 328 328 327 326 326 327 327 330 331
324 328 332 333 335 338 339 339 339 340 340 340 340 339 338 336 335 334 333 331 331 330 330 329 328 329 329 328 328 327 327 326 326 325 326 326 326 325 324 323 322 322 322 321 321 320 320 319 319 318 318 318 318 317 317 317 317 316 316 315 314 313 313 314 313 301 302 301 300 302 305 310 302 311 322 324 327 327 326 326 326 326 328 328 330
321 326 328 330 334 335 336 337 337 338 339 338 338 336 335 334 333 331 330 329 328 327 326 326 326 325 326 327 326 326 325 325 324 325 324 324 323 323 323 323 322 321 320 320 320 319 318 318 318 317 317 317 316 316 316 316 315 315 314 314 313 313 312 313 307 301 300 300 300 305 301 301 305 313 321 324 326 326 326 327 326 327 328 328 328
319 323 326 326 328 332 334 334 334 335 335 334 335 334 333 332 330 329 328 327 326 325 325 324 324 324 324 324 323 323 323 323 323 323 322 322 322 322 321 321 320 319 318 318 317 317 316 317 316 316 315 315 315 314 314 313 313 313 313 312 312 312 312 311 304 301 301 301 302 302 301 300 307 316 319 323 325 325 326 326 326 326 326 326 327
318 321 323 324 326 329 329 331 332 332 332 332 332 332 331 330 328 327 326 326 325 325 324 324 323 323 322 322 321 321 321 321 321 321 321 320 320 320 319 318 318 317 317 316 316 316 315 315 315 315 314 314 313 313 313 313 313 313 313 312 311 310 310 307 307 300 301 301 303 303 302 304 306 315 318 322 324 324 324 325 325 325 325 325 325
317 321 321 323 323 324 327 326 327 328 329 329 329 329 328 328 327 326 325 325 324 324 323 322 322 322 321 320 319 319 320 319 318 318 318 317 317 317 316 316 316 316 315 315 315 315 314 315 315 315 315 314 313 313 313 313 313 312 312 311 310 310 309 304 303 300 300 304 301 303 300 301 311 314 318 321 321 323 324 324 324 325 325 325 324
319 319 320 321 321 322 322 324 323 323 324 325 325 326 325 325 324 323 323 323 322 321 321 320 320 319 319 318 317 317 318 317 315 314 314 314 315 314 314 315 314 315 314 314 314 314 314 314 314 314 314 314 313 313 313 313 313 312 311 311 309 309 308 308 301 299 298 299 301 302 299 303 311 314 317 319 321 322 323 323 324 324 324 323 324
319 318 317 320 320 318 318 318 320 320 320 321 321 321 322 321 321 321 320 320 320 319 318 317 317 317 316 315 315 315 314 314 314 313 312 312 312 312 313 313 313 313 313 313 313 313 313 313 313 313 313 313 313 313 313 313 311 310 310 309 308 308 308 310 300 298 297 303 303 300 300 304 309 314 316 318 320 321 322 323 323 323 322 322 322
317 317 316 316 317 317 318 319 317 315 312 315 317 318 318 318 318 317 317 317 317 317 316 316 314 313 313 314 314 313 312 311 311 311 311 310 309 309 310 312 312 312 312 313 312 312 313 313 312 312 312 312 312 312 311 310 309 309 308 308 307 308 308 306 298 299 298 305 299 303 302 307 311 314 315 318 319 321 321 322 321 321 321 322 322
313 314 315 315 315 314 313 313 314 311 308 307 308 312 315 315 314 313 312 312 312 312 312 312 312 311 311 311 311 311 311 310 309 308 308 308 308 308 309 310 311 311 311 312 311 311 312 312 311 311 312 312 311 311 309 308 308 308 307 307 306 306 305 303 297 297 299 297 299 299 299 308 311 313 315 317 318 319 319 319 319 319 319 319 320
312 313 313 313 313 312 311 310 309 307 305 303 303 303 310 311 312 311 311 310 310 309 309 309 308 308 309 309 308 309 308 308 308 306 306 306 307 306 307 308 309 309 309 310 310 310 310 311 311 311 311 311 310 309 307 307 307 307 306 306 305 305 297 296 296 297 297 297 302 297 305 308 311 312 314 316 317 318 318 318 318 318 318 318 319
310 311 311 310 311 310 309 307 308 307 305 306 307 307 308 310 311 310 310 309 309 308 311 313 313 310 310 311 310 304 302 302 303 302 305 304 306 306 306 306 307 307 308 309 310 310 310 310 310 310 310 309 307 306 306 306 306 306 305 305 305 297 297 296 296 298 298 298 302 299 305 308 311 312 313 315 317 317 317 316 317 317 317 317 317
305 305 307 308 308 308 307 305 305 306 307 310 309 308 306 307 303 304 306 307 310 310 307 306 310 304 310 305 302 303 300 299 301 306 303 303 304 305 306 307 306 307 307 308 308 308 309 310 309 308 308 307 306 300 300 305 305 305 305 305 298 296 296 296 296 296 299 297 302 303 306 307 310 311 312 314 316 317 316 315 315 315 316 316 316
302 302 303 305 306 306 306 304 303 303 304 305 307 307 301 301 302 303 306 309 307 306 303 305 303 302 302 301 302 301 301 301 301 306 308 307 304 308 309 309 307 307 308 307 306 307 308 307 307 306 306 305 300 296 296 296 296 305 305 298 295 295 296 296 296 296 297 297 300 306 305 307 309 310 310 313 314 316 314 315 314 314 314 314 314
300 301 301 304 304 303 304 305 305 304 303 303 306 302 302 302 302 302 302 302 302 304 302 302 302 302 303 300 300 302 302 300 309 310 311 304 302 309 310 312 311 309 307 307 307 307 306 306 306 305 307 301 297 296 296 295 296 296 296 295 295 295 296 296 295 296 296 299 299 304 305 306 307 308 309 312 313 313 313 313 313 313 313 313 313
301 300 300 301 301 301 301 302 304 305 304 302 302 301 301 300 301 300 300 299 301 301 300 301 302 302 301 301 301 302 303 300 300 300 299 299 299 298 298 298 298 297 307 297 298 299 300 297 298 301 297 297 296 296 297 296 297 296 295 295 296 296 296 296 296 295 295 296 298 304 305 306 306 306 308 309 311 312 312 313 311 312 312 312 312
301 298 298 298 299 299 299 300 302 303 302 300 301 303 302 300 300 299 299 299 303 299 299 299 299 301 301 301 301 300 300 299 299 299 299 299 298 297 297 297 297 297 300 297 297 297 297 296 296 296 296 296 296 296 296 298 295 295 295 295 296 296 295 295 295 295 296 295 297 304 304 304 304 305 306 307 309 310 310 311 311 312 312 311 311
300 298 297 297 297 298 299 298 299 301 302 302 301 300 298 297 297 298 299 298 299 298 298 299 299 300 299 300 299 297 298 297 298 298 298 298 297 297 296 297 296 296 298 296 297 297 296 295 295 296 296 296 296 296 296 296 295 295 295 295 296 296 295 295 295 295 295 295 299 303 303 302 303 304 304 305 307 308 308 309 310 311 311 311 311
300 298 297 297 297 296 298 299 298 299 299 299 297 296 297 299 300 300 298 300 299 298 299 300 301 299 300 300 300 297 296 296 297 297 296 297 297 298 298 296 296 296 298 297 296 295 295 295 296 295 296 295 295 296 295 295 295 295 295 295 295 295 295 295 295 295 295 295 296 301 302 301 301 303 303 304 305 306 307 307 309 310 309 309 309
299 299 298 296 298 297 296 295 296 296 296 296 296 297 298 299 299 297 297 303 298 298 298 298 298 298 299 299 300 297 296 297 296 296 296 296 296 297 296 295 297 296 297 295 296 295 295 295 295 295 295 295 294 294 295 295 295 294 294 294 294 295 295 295 294 295 295 294 295 297 302 301 300 301 302 302 303 304 306 306 307 308 308 308 308
300 299 298 297 296 295 295 296 296 297 298 297 297 297 298 297 298 298 298 298 297 299 298 297 297 296 296 298 299 299 297 295 296 296 295 295 295 296 297 296 296 296 295 295 295 295 295 295 295 295 294 294 294 294 295 294 294 294 294 294 294 294 294 294 294 294 294 294 294 296 302 301 299 299 300 300 301 303 305 305 306 307 307 307 307
301 299 299 299 299 297 298 297 297 300 298 298 298 296 297 297 299 298 298 297 298 299 298 297 297 296 296 298 299 298 297 297 296 295 295 295 296 296 296 296 296 295 295 295 296 296 295 294 295 294 294 294 293 294 294 293 293 294 294 294 294 294 294 294 294 294 293 293 294 294 298 301 300 299 299 300 302 304 304 304 305 306 306 306 305
302 300 298 298 298 296 296 296 296 298 298 297 298 298 297 298 299 298 296 297 299 298 297 297 298 297 298 298 298 297 298 296 296 296 296 295 295 295 296 297 295 294 295 295 295 296 295 295 295 295 295 294 293 293 294 293 292 293 293 293 294 294 294 294 293 293 293 293 294 293 293 298 301 300 300 301 301 301 302 303 303 304 305 305 305
301 301 300 299 297 296 295 296 296 297 297 296 297 297 297 297 297 298 297 300 298 297 297 297 296 296 297 297 297 298 297 296 295 296 298 295 295 296 296 296 295 295 295 296 295 295 295 293 294 294 293 293 293 293 294 293 292 292 293 293 293 293 294 293 293 292 292 293 293 293 293 294 294 300 299 299 299 300 300 301 302 303 303 304 305
300 300 299 297 299 303 302 300 298 298 299 298 298 298 298 299 297 298 298 298 297 296 298 298 296 297 296 297 297 297 297 296 296 296 296 295 296 296 295 295 294 295 295 295 294 294 293 293 293 292 294 293 292 292 292 292 292 292 292 293 292 293 293 293 292 292 291 292 292 292 292 292 292 292 295 299 298 298 299 300 301 301 302 303 303
301 298 299 298 297 298 301 297 298 299 297 298 299 299 298 298 297 298 298 297 297 297 297 296 296 296 295 296 297 298 297 298 297 297 296 295 295 295 295 294 296 295 294 294 294 294 293 292 292 291 291 291 291 292 292 292 292 291 291 292 291 292 293 292 291 291 291 292 293 292 293 291 291 293 294 290 298 297 298 298 299 300 301 301 300
301 300 301 299 296 298 298 297 297 299 298 299 299 298 297 297 298 300 296 298 297 297 296 297 296 294 294 295 297 298 297 298 297 297 295 295 294 294 294 295 295 295 294 294 294 292 292 293 292 292 291 291 291 291 291 291 291 291 291 291 291 292 291 289 289 290 291 291 292 292 291 291 290 290 295 289 289 295 296 297 297 299 298 298 297
302 301 299 299 298 298 297 300 297 298 299 298 299 300 298 298 297 298 297 298 298 296 295 295 295 295 295 295 296 297 297 297 297 297 296 295 294 295 294 295 295 294 293 293 292 293 292 293 292 292 291 290 290 290 290 291 291 291 290 290 290 290 287 287 288 289 292 291 290 289 289 289 291 295 289 288 289 289 294 295 296 296 295 294 294
302 303 301 299 298 298 297 298 299 298 298 298 298 299 298 299 298 297 298 297 298 297 295 296 296 295 294 296 297 296 296 296 296 297 295 296 295 295 294 295 294 293 292 293 292 293 292 292 291 291 291 290 290 289 289 290 291 289 289 289 288 287 286 287 288 293 290 289 288 288 288 289 289 289 288 288 289 289 289 290 293 293 292 292 293
300 300 301 301 299 299 299 298 299 298 297 297 298 298 297 296 296 297 297 296 295 296 295 294 296 294 295 296 297 296 297 295 296 296 296 295 294 294 294 294 294 292 292 292 292 292 292 291 290 290 291 290 290 290 289 289 288 287 287 288 286 286 286 287 288 289 290 289 290 290 289 288 288 288 288 288 287 287 287 285 284 284 284 291 291
299 298 299 300 299 299 298 298 297 296 297 297 297 296 296 295 295 295 295 295 295 296 295 294 294 294 296 295 295 296 296 297 295 296 295 295 293 293 293 294 293 292 291 291 290 290 290 290 290 290 289 289 290 289 289 287 285 285 286 286 286 286 286 287 287 288 290 289 287 287 286 287 287 287 288 287 287 286 285 285 286 283 284 287 290
299 298 297 297 298 298 297 297 297 297 296 295 294 295 295 295 295 295 294 293 294 295 294 295 294 294 295 295 295 295 295 296 296 295 294 295 294 292 292 292 292 292 291 291 291 291 292 290 290 289 288 287 287 287 287 286 283 282 283 283 284 285 287 287 287 287 285 285 285 285 285 286 285 286 286 287 286 285 285 284 283 283 283 283 285
298 297 296 297 297 297 296 297 297 296 295 294 296 294 296 294 292 293 293 292 292 292 292 294 295 297 295 294 295 295 295 295 295 295 295 294 292 292 292 291 291 291 292 292 291 293 290 289 289 287 287 286 285 286 286 284 281 280 279 280 281 283 285 287 285 284 284 284 285 285 286 286 285 286 286 285 284 285 284 283 283 283 283 283 283
299 297 297 297 297 297 297 297 296 296 296 295 294 295 296 296 294 294 293 293 293 294 294 295 294 293 294 294 295 295 295 294 294 295 295 294 292 291 291 291 291 292 290 290 289 289 288 288 287 286 285 285 285 286 284 284 280 281 281 280 278 278 282 285 283 284 284 284 285 285 286 285 286 286 286 285 284 283 284 283 283 283 283 283 283
299 298 297 296 296 296 296 296 296 296 296 296 295 296 295 295 296 295 295 293 291 295 295 295 294 294 295 295 294 294 295 294 294 293 293 293 292 291 291 290 290 291 289 288 288 288 287 287 286 286 285 281 281 282 284 283 282 281 276 278 278 278 274 276 279 281 283 284 284 284 284 285 285 285 285 284 284 283 283 283 283 283 283 283 283
299 298 298 296 299 295 296 296 296 295 295 297 295 296 296 296 295 295 295 294 294 293 293 294 294 294 294 293 293 294 295 294 293 293 294 292 292 291 290 290 289 289 290 288 288 287 287 286 285 284 283 281 280 281 282 283 282 283 280 279 276 276 275 277 279 279 281 282 283 283 284 284 283 283 282 282 283 283 283 283 282 282 282 282 282
299 300 299 298 296 296 296 296 297 295 295 296 296 295 295 294 293 291 291 290 290 290 291 291 292 292 292 293 294 294 294 293 292 292 292 293 291 291 290 290 289 288 289 288 287 286 285 285 285 284 282 282 281 280 280 282 283 283 284 281 280 276 276 278 277 273 280 281 281 282 282 282 282 282 282 282 282 282 283 283 283 282 282 282 282
300 300 300 299 297 297 297 296 296 295 298 296 295 294 294 293 293 293 294 293 292 293 293 293 292 292 293 293 293 293 293 293 292 291 291 291 291 290 289 289 288 288 289 287 285 285 285 285 286 283 282 284 282 279 280 280 280 281 282 281 281 282 280 277 274 276 274 277 280 280 280 281 281 282 282 282 282 282 282 283 282 282 282 282 282
300 299 298 297 297 297 297 297 297 295 297 296 296 295 293 294 294 295 294 294 293 293 293 292 293 292 293 293 293 293 293 292 292 291 290 290 290 289 289 288 287 287 289 285 284 284 285 285 285 284 283 283 281 280 279 279 278 278 281 280 280 280 279 279 279 276 275 273 275 279 280 280 281 281 281 281 282 282 281 282 282 282 281 282 282
299 298 297 297 298 297 297 296 296 296 296 295 295 296 296 294 294 293 293 295 294 294 293 293 293 293 293 293 292 292 292 292 292 291 289 289 290 289 287 286 286 286 288 285 284 284 283 282 282 281 281 281 282 282 279 278 278 278 278 278 278 278 278 279 279 278 276 273 274 275 276 279 279 280 280 281 281 281 281 281 282 283 283 283 281
297 298 297 297 297 296 296 296 295 295 295 295 295 295 294 293 293 294 294 294 294 294 293 293 293 292 292 292 291 291 291 291 291 290 288 288 287 287 286 285 285 285 287 283 283 283 282 282 282 281 281 280 280 280 280 279 279 279 279 278 277 277 277 277 276 277 276 276 273 273 275 274 274 277 279 279 280 280 281 281 281 281 281 281 281
297 296 297 297 297 297 295 295 295 295 295 294 295 294 294 295 295 294 293 292 293 292 292 291 291 291 291 290 290 291 290 290 289 289 287 286 286 287 286 285 285 286 285 282 282 282 281 281 281 280 280 280 279 279 280 280 280 279 279 278 277 277 276 275 275 276 275 274 274 274 274 275 275 274 277 279 279 279 280 280 280 281 281 281 280
Wind_Speed
6 6 4 6 5 4 8 14 14 15 16 16 16 17 17 17 18 18 17 17 17 16 16 16 17 17 16 16 17 18 19 20 20 20 20 19 20 21 22 21 20 20 19 19 20 20 20 20 20 19 19 20 20 20 19 19 19 19 18 18 18 18 18 17 17 16 17 17 17 16 14 11 6 8 6 8 9 9 10 12 10 7 8 7 13
6 4 3 2 3 6 13 14 15 16 16 16 16 17 17 17 18 17 17 17 16 17 18 18 17 16 17 17 18 18 19 20 20 20 22 22 21 20 20 20 21 21 20 19 19 19 19 19 19 19 19 19 19 19 19 19 19 18 18 18 18 18 18 18 17 17 17 18 18 17 17 15 7 5 7 8 9 11 12 12 13 8 4 12 13
3 3 2 4 7 11 13 13 15 16 17 16 16 16 17 18 18 18 18 17 17 16 18 18 17 18 18 18 19 19 21 22 22 21 21 20 20 20 20 20 20 19 19 19 19 19 19 18 18 19 19 19 19 19 19 19 18 18 18 18 18 18 18 17 18 17 17 17 18 19 17 15 4 4 8 12 15 14 13 14 13 13 6 14 13
5 5 3 4 9 11 11 14 15 16 16 16 16 16 17 18 18 18 18 18 17 17 17 17 18 19 19 20 20 21 21 22 21 20 20 20 19 19 19 19 19 19 19 19 19 19 19 19 19 18 19 19 18 18 18 18 18 17 18 18 18 18 18 18 18 18 18 18 17 16 7 6 2 12 12 13 14 16 15 15 16 13 12 11 12
4 4 5 4 5 10 12 15 15 16 17 17 16 17 18 19 18 18 18 18 19 19 18 16 17 19 20 20 21 21 22 21 20 20 19 19 19 19 19 19 19 18 18 19 19 19 19 19 18 18 18 18 17 17 17 17 17 17 17 17 17 18 18 18 18 18 18 19 16 11 7 10 9 11 16 15 16 18 16 15 15 14 12 12 13
6 5 4 4 6 10 16 15 14 10 17 17 18 18 19 19 19 19 18 18 19 19 19 19 18 18 19 20 21 21 21 20 19 19 19 19 19 19 19 19 18 18 18 18 18 18 18 18 18 17 17 17 17 17 17 17 17 17 18 18 18 18 18 18 17 19 18 15 14 7 8 9 9 9 18 18 19 17 17 19 17 14 15 16 15
6 4 4 6 7 9 12 13 13 15 17 18 18 19 19 19 19 18 18 19 19 19 19 19 19 19 19 20 21 21 20 19 18 18 19 19 19 19 19 18 18 18 18 18 18 18 18 17 17 17 17 17 18 18 18 18 18 18 18 19 19 19 19 19 17 17 16 10 7 7 6 8 8 7 15 18 18 18 19 18 18 18 16 16 17
5 4 5 6 6 9 10 13 14 16 18 18 18 19 19 19 19 18 19 19 19 18 19 19 19 20 20 20 19 19 19 18 18 18 18 18 18 18 18 18 18 18 18 18 18 18 18 17 17 17 17 17 17 18 18 17 18 18 18 18 19 19 19 19 19 16 16 8 6 6 7 6 8 7 15 19 19 19 19 18 17 17 17 17 14
6 6 8 7 7 10 10 12 15 17 17 18 19 19 19 19 19 18 19 19 19 19 19 19 19 19 19 19 19 19 19 18 18 18 18 18 18 18 18 18 18 18 18 18 18 17 17 17 17 17 17 17 17 17 17 17 17 17 17 18 18 19 19 19 18 15 8 5 6 6 7 6 7 5 14 19 19 19 18 17 14 16 16 15 13
7 8 9 7 9 13 14 16 17 17 17 18 19 20 19 19 18 18 19 18 18 18 18 18 18 18 19 19 19 19 19 18 18 18 18 18 18 17 17 17 17 17 17 17 17 17 17 16 16 16 16 16 16 16 16 16 16 17 17 17 17 18 18 18 17 10 6 5 6 6 7 12 6 5 14 17 18 18 17 18 13 13 12 14 14
10 7 9 10 12 13 15 17 18 18 18 19 20 19 18 18 18 18 18 18 18 18 18 18 18 18 18 19 19 19 18 18 18 17 17 17 17 17 17 17 17 17 17 17 16 16 16 16 16 16 16 16 16 16 16 16 16 17 17 17 17 17 17 17 14 4 5 6 7 6 7 14 6 5 16 18 17 17 17 16 16 15 15 15 15
8 8 9 9 13 16 16 17 18 19 20 20 18 18 18 18 18 17 18 18 18 18 18 18 18 18 18 18 18 18 18 18 17 17 17 17 17 17 17 17 17 17 16 16 16 16 16 16 16 16 16 16 16 16 16 16 17 17 18 18 17 17 17 18 9 5 5 4 6 7 6 8 5 10 20 18 18 17 17 16 16 15 15 15 15
7 5 9 9 10 16 16 17 19 18 18 17 17 17 17 17 17 17 18 18 18 18 17 18 18 18 18 18 18 18 18 17 17 17 17 17 17 17 17 16 16 16 15 15 15 15 15 15 15 15 15 15 15 15 15 15 16 17 18 18 18 17 16 18 8 5 5 4 5 6 6 6 4 17 20 19 19 18 17 17 16 15 15 14 14
6 7 8 9 9 16 18 18 18 17 17 17 17 17 17 17 17 17 18 18 17 17 17 18 18 18 18 17 17 17 17 17 17 17 17 16 16 16 16 15 15 15 15 15 15 15 15 15 15 15 15 15 15 15 14 15 15 16 17 18 18 17 17 12 11 5 6 5 5 7 5 6 5 18 19 18 18 18 17 17 16 15 15 15 15
6 4 7 8 8 10 18 19 18 17 17 17 16 16 17 17 17 17 17 17 17 17 17 17 17 17 17 17 17 17 17 17 17 16 16 15 15 14 14 14 14 15 15 15 15 15 15 15 15 14 15 15 15 16 14 14 15 16 16 17 18 16 16 7 7 5 5 5 5 5 6 4 13 19 19 18 18 17 17 16 16 16 15 15 15
2 3 5 6 7 6 7 13 17 17 17 16 15 16 17 17 17 17 17 17 17 17 17 17 17 16 16 16 17 17 16 16 15 15 14 14 14 14 14 14 15 15 15 15 15 15 14 15 15 15 15 15 16 16 15 15 15 16 17 17 18 17 15 11 6 5 6 6 4 5 6 5 18 19 18 18 18 17 17 16 16 15 15 15 15
3 6 5 5 6 5 6 7 11 16 16 16 15 16 16 16 16 16 16 16 17 17 16 16 15 15 15 16 16 16 15 15 14 13 13 13 13 13 14 14 15 14 14 15 15 15 15 15 16 17 17 17 18 18 17 16 16 17 16 18 19 18 15 12 4 5 6 5 3 6 5 5 15 19 18 18 17 17 16 16 16 16 15 15 16
4 5 6 6 5 5 4 3 5 6 6 10 13 15 15 16 16 16 16 16 16 16 15 14 14 14 14 14 14 14 14 14 13 12 12 11 12 13 14 14 15 15 15 15 16 16 16 16 16 17 17 17 18 18 18 16 16 17 16 17 18 18 15 10 4 6 5 4 4 4 3 9 17 17 17 17 17 17 16 15 16 16 16 15 15
5 6 5 5 5 5 5 5 5 6 6 6 5 9 15 15 16 16 16 16 15 14 13 13 12 11 11 11 12 12 11 11 11 11 11 12 12 12 13 13 15 16 15 14 14 14 16 15 15 16 17 17 17 17 17 16 16 17 16 16 17 16 12 7 5 6 5 4 4 3 4 12 16 17 17 16 17 16 16 15 15 15 14 14 14
4 5 6 6 5 5 4 5 6 6 5 5 5 6 11 15 14 14 14 13 12 10 10 10 8 6 6 7 10 7 7 6 10 6 9 9 10 8 10 10 11 13 15 14 13 13 14 15 15 15 17 17 16 16 17 16 17 16 15 15 15 12 5 6 5 5 6 5 3 3 8 14 16 17 17 16 16 16 16 15 15 15 14 14 15
3 5 5 5 5 5 5 5 5 5 5 4 3 4 6 9 8 10 11 10 10 9 7 6 5 4 2 2 6 4 4 4 4 3 5 1 4 5 6 7 8 11 13 16 13 13 14 15 14 15 16 17 15 16 15 15 16 16 15 14 12 6 5 6 6 5 5 5 4 4 13 13 15 17 16 15 15 16 15 15 15 15 14 15 15
3 4 4 5 4 4 4 5 5 4 3 2 3 3 4 6 5 4 4 5 6 6 5 4 5 4 6 5 4 3 4 3 2 4 2 1 1 3 4 5 7 8 10 15 14 14 16 16 15 15 16 16 16 6 6 9 13 15 15 13 6 6 5 6 6 6 5 5 5 6 15 13 14 17 17 15 14 15 14 13 14 14 14 15 15
4 3 4 5 4 4 4 4 5 5 4 4 3 4 4 4 4 4 3 4 5 4 4 4 4 5 5 5 5 6 2 2 1 2 3 4 4 6 7 7 7 8 8 14 14 14 16 16 15 15 16 15 7 5 5 6 6 10 9 6 5 6 6 6 6 7 6 5 5 9 15 13 13 16 16 15 14 14 14 13 13 13 14 14 15
3 3 4 4 5 5 4 4 3 4 3 2 3 3 3 3 2 2 3 3 3 4 4 4 4 5 5 4 3 2 3 3 3 4 6 3 2 5 7 8 6 7 10 7 9 10 15 14 14 14 8 5 6 6 5 5 6 6 6 6 5 6 6 6 7 7 7 5 5 13 16 13 12 14 16 15 14 14 13 13 13 13 14 14 14
3 3 4 4 4 5 4 4 3 2 3 4 4 3 3 3 3 3 5 4 5 4 3 4 4 4 4 5 2 0 3 2 2 3 4 4 4 4 5 6 4 5 5 5 6 5 6 6 6 6 5 6 5 6 5 6 6 6 6 6 6 5 6 6 7 7 7 6 5 15 17 15 10 12 15 15 14 13 12 12 13 14 14 14 15
3 4 4 5 4 4 4 4 3 3 3 3 3 2 4 4 5 4 3 3 3 3 4 4 4 4 4 4 6 5 4 3 4 4 4 4 4 5 5 6 4 5 4 6 6 5 6 6 6 6 6 7 6 6 6 4 6 7 7 5 6 5 6 6 6 7 7 6 5 15 16 14 8 11 14 14 14 13 12 13 13 14 14 15 15
3 4 4 4 4 4 4 4 4 2 2 2 4 5 5 5 4 4 5 5 3 4 4 3 2 4 4 4 5 6 5 4 4 4 5 5 4 4 5 5 4 6 4 6 5 6 7 7 6 5 6 7 7 7 6 5 6 6 6 6 6 6 6 7 6 6 6 6 7 13 15 5 7 10 13 14 13 13 13 13 14 14 15 15 15
3 4 4 3 3 4 4 3 3 3 1 2 4 5 3 3 1 3 4 2 2 3 2 0 0 4 4 5 4 6 5 5 5 5 5 5 5 4 4 6 5 6 6 6 5 6 6 7 6 5 5 5 6 7 6 6 6 5 6 6 5 6 7 7 7 7 6 6 6 7 13 3 5 9 12 14 13 13 14 14 14 15 15 16 16
4 3 3 3 2 1 4 4 1 3 3 4 4 3 3 3 3 4 2 2 4 2 1 1 3 2 4 4 4 5 5 5 4 5 6 6 6 5 5 6 6 5 6 6 5 5 6 6 6 5 6 6 6 7 6 6 5 6 7 6 6 7 7 7 7 7 6 6 7 7 10 9 3 8 11 13 12 13 14 14 14 15 16 17 17
3 3 3 3 2 2 3 4 4 4 3 3 2 3 3 3 3 2 0 2 2 0 2 3 3 4 4 4 4 3 4 4 4 4 4 6 6 4 5 5 6 5 6 7 6 6 6 6 5 6 6 6 6 7 6 6 6 6 6 6 7 7 7 7 7 6 6 7 7 4 5 9 3 5 8 11 11 12 13 14 14 15 17 18 17
2 3 3 3 2 3 3 4 3 1 1 4 3 3 3 3 0 1 3 3 1 2 2 2 3 3 3 3 3 4 4 5 3 4 4 5 6 5 5 3 4 6 6 7 6 5 6 5 6 7 7 6 6 7 7 7 7 6 6 6 7 7 8 8 7 6 7 7 6 3 2 7 4 6 8 10 10 12 13 13 12 14 17 18 17
1 3 3 3 2 4 2 2 3 2 1 4 1 1 3 1 1 1 4 2 3 1 1 1 1 1 2 2 3 4 4 4 4 4 4 5 5 6 5 4 4 7 7 7 6 6 6 4 6 6 6 5 7 7 7 7 7 6 6 7 8 8 9 8 6 6 7 6 6 3 3 4 4 7 8 9 10 13 13 13 12 15 17 18 18
1 3 3 2 2 2 3 2 3 1 2 1 2 1 1 1 1 1 3 0 2 1 2 1 1 2 2 3 1 2 3 4 4 4 5 6 5 5 4 4 6 6 7 6 5 6 4 6 7 6 6 6 6 7 6 7 7 6 6 8 9 9 9 7 6 6 7 7 5 4 4 3 3 6 10 11 12 15 15 14 16 17 16 17 18
2 2 3 3 2 2 1 3 2 2 2 4 2 1 1 1 1 1 2 0 1 2 0 0 0 1 1 3 2 2 3 3 4 4 4 6 5 4 4 4 6 6 6 6 6 6 5 6 6 6 6 7 7 7 7 8 7 6 6 8 9 9 9 7 6 6 6 7 3 4 4 3 3 4 3 8 13 13 14 16 16 16 17 18 19
3 3 3 4 3 2 1 2 1 2 1 0 0 2 1 2 2 1 2 1 2 2 1 1 1 2 2 3 3 2 2 2 4 4 5 5 4 5 4 4 5 6 7 6 6 5 5 5 6 7 6 7 7 7 7 8 8 6 7 9 10 10 8 7 6 6 6 6 5 3 4 4 4 5 5 5 6 10 14 16 16 17 18 19 19
3 4 3 2 4 3 1 1 2 1 1 0 0 0 1 1 1 2 1 2 1 3 1 0 1 1 2 2 3 2 2 1 3 4 5 5 5 5 3 4 4 6 6 6 4 6 5 6 6 6 7 8 8 8 7 8 6 7 8 10 10 10 8 7 7 6 5 6 3 5 6 6 6 6 5 4 4 6 14 15 16 17 19 19 19
2 4 4 2 3 4 1 1 3 1 1 3 2 0 1 2 2 0 0 0 1 3 1 1 1 1 1 4 4 4 2 4 3 4 4 5 6 6 4 4 4 5 6 6 5 5 5 5 6 6 5 8 8 9 9 7 6 7 9 11 10 8 9 9 7 7 4 3 4 5 6 6 6 6 4 4 5 5 8 15 16 18 19 19 18
1 1 3 4 3 5 4 2 0 1 1 0 0 0 1 1 1 3 2 1 1 0 1 0 0 1 5 3 2 4 2 4 4 4 4 4 5 5 4 4 4 5 6 6 5 4 5 5 6 6 7 8 8 9 10 7 6 9 10 10 9 9 10 9 7 6 4 2 4 4 4 6 5 5 5 4 4 6 5 8 14 15 15 17 18
3 2 2 1 1 3 3 3 1 2 1 1 1 0 1 3 3 1 1 3 3 4 1 1 1 3 5 2 3 3 4 5 4 4 4 5 6 5 6 5 4 5 6 6 5 4 4 5 5 7 6 7 8 9 9 7 8 9 9 8 9 12 11 9 8 4 0 3 3 3 5 5 4 5 5 4 5 5 6 6 5 5 6 16 17
3 3 4 3 2 2 3 4 4 5 3 1 3 3 3 4 4 3 3 2 4 2 4 3 1 6 2 3 3 3 4 4 4 5 4 5 5 6 6 6 5 4 5 6 6 5 5 5 6 6 8 7 7 7 7 8 9 8 8 8 8 12 12 8 9 3 3 6 6 7 6 3 5 6 4 4 5 5 6 5 4 5 5 7 16
3 3 4 4 4 3 4 3 4 3 2 3 3 3 1 1 1 0 0 1 0 1 1 2 6 4 3 3 3 4 3 3 4 4 4 4 4 6 6 6 5 4 5 5 5 5 5 5 6 5 7 9 8 6 7 8 10 8 5 7 8 8 11 10 4 9 9 9 9 8 5 4 6 7 4 4 5 4 5 4 5 6 5 5 6
4 4 4 4 4 4 4 4 3 4 3 1 1 1 0 1 1 1 1 2 2 2 1 5 3 3 4 4 4 3 4 3 4 4 3 4 4 6 6 6 6 6 5 5 5 5 5 6 5 5 4 8 7 7 8 10 5 8 14 11 5 3 11 2 9 10 12 12 10 6 3 5 6 6 4 5 4 5 4 5 5 5 5 5 5
4 4 4 4 3 2 2 1 2 3 3 1 1 1 1 2 1 1 1 2 2 2 2 4 3 3 4 3 4 3 3 3 4 4 4 4 4 4 5 6 6 5 6 6 5 6 5 6 6 6 8 4 6 6 8 7 7 8 8 8 8 10 5 2 6 13 13 9 6 9 7 6 8 5 6 6 5 4 4 4 4 4 4 4 5
2 3 4 3 2 3 3 3 3 2 2 4 1 1 2 2 0 1 3 3 3 2 1 3 3 0 2 4 4 2 3 4 4 4 4 5 4 4 4 5 6 5 6 6 6 6 6 6 6 6 6 8 6 5 5 7 6 10 9 5 8 6 8 1 8 8 9 4 11 9 5 7 8 7 6 6 5 5 6 5 5 4 3 4 4
3 2 3 3 2 3 4 4 2 3 2 4 2 0 2 1 3 3 3 3 3 2 0 1 1 1 4 4 3 3 3 4 5 4 4 4 5 4 4 5 6 6 5 6 6 5 6 6 6 6 6 7 8 5 5 6 7 7 5 6 5 3 2 8 13 9 1 11 9 6 9 10 9 7 6 6 6 6 6 5 4 4 4 4 4
4 4 3 4 3 3 3 3 1 1 3 4 2 1 0 1 2 2 3 2 3 3 3 2 3 3 2 3 4 3 3 4 4 4 4 4 5 5 4 5 5 6 6 6 6 6 6 6 5 6 6 6 6 7 6 4 6 7 5 4 3 5 11 11 8 8 4 5 5 6 7 7 8 8 9 10 9 7 6 5 4 5 4 4 4
4 4 4 2 3 3 3 2 0 1 2 3 3 0 0 2 1 0 1 1 1 1 3 5 4 3 3 3 3 4 3 4 4 4 4 4 4 4 5 5 6 6 5 5 6 6 6 4 5 6 6 6 5 6 7 7 5 4 5 6 6 6 7 8 8 10 13 2 1 6 6 6 11 10 10 9 7 8 8 6 6 6 5 4 4
3 5 4 3 2 2 3 1 1 2 3 3 2 0 1 1 0 0 1 1 3 3 4 3 3 2 2 1 2 4 4 3 4 4 4 4 5 5 4 4 5 6 5 5 6 6 6 5 5 6 6 5 5 6 6 6 7 7 5 6 5 7 7 7 6 8 10 14 11 5 4 10 12 9 8 9 9 8 9 10 9 7 6 5 4
4 4 4 3 2 3 2 1 2 4 3 1 1 0 3 3 3 4 4 4 4 3 2 3 2 0 1 1 0 2 4 3 4 3 4 4 5 5 4 5 5 6 4 6 6 6 6 7 7 7 6 6 5 5 6 6 6 7 7 5 6 6 6 5 6 6 8 11 11 8 12 7 11 9 6 7 7 9 10 9 8 7 5 4 4
4 4 4 3 3 3 2 3 3 2 4 2 3 5 2 2 3 4 4 4 4 5 2 2 2 2 2 2 4 4 4 4 4 4 5 5 6 5 4 5 6 5 6 6 6 6 6 6 6 6 6 5 5 6 5 6 6 6 6 7 7 6 5 5 4 6 5 4 10 13 10 14 14 12 8 8 11 10 10 9 7 6 5 4 4
3 4 3 3 2 3 3 3 3 5 5 4 4 3 3 4 5 4 4 4 2 3 5 5 5 4 5 6 6 5 5 5 5 5 6 6 6 5 5 5 5 5 6 5 5 5 6 6 6 6 6 5 6 5 5 6 5 6 6 6 6 6 7 7 7 7 6 6 9 9 9 8 11 15 11 12 11 11 9 8 8 6 4 3 3
Wind_Direction
31 26 60 79 91 94 102 87 87 84 83 81 79 77 75 73 71 67 64 62 61 60 58 56 56 55 57 58 59 64 65 63 60 60 59 56 53 53 50 48 46 43 38 36 35 37 37 37 36 36 35 35 33 32 30 28 26 24 21 18 15 11 7 3 359 353 341 337 335 331 330 321 318 338 1 5 346 340 345 339 330 322 321 312 312
332 8 78 76 77 93 103 96 88 87 85 83 80 78 76 74 71 68 65 63 61 61 63 59 60 62 62 61 66 65 63 60 58 53 51 48 44 44 43 45 44 45 45 41 39 39 39 38 37 36 35 34 32 31 29 27 25 23 20 18 15 9 6 1 356 350 344 336 333 328 324 319 295 355 16 10 354 343 348 337 325 318 306 306 310
276 110 85 113 116 121 92 95 93 89 87 84 82 81 80 77 73 70 68 66 64 62 65 63 61 62 62 63 63 63 58 55 51 49 48 47 46 46 45 46 47 46 44 43 42 40 39 38 38 36 35 34 33 31 29 27 24 21 19 16 13 9 4 360 353 347 344 338 332 326 324 321 182 325 34 24 8 358 352 343 332 320 305 306 310
91 121 120 110 116 98 100 93 92 90 88 84 82 80 80 77 74 71 69 68 67 64 62 62 62 58 58 59 60 59 59 57 53 52 51 50 50 49 49 49 47 46 45 44 42 41 38 37 36 35 34 33 32 30 28 26 23 21 18 16 12 7 4 358 353 348 342 337 331 325 312 343 85 33 22 20 11 9 4 356 349 341 332 330 327
74 103 98 83 78 101 97 89 86 92 87 85 83 83 81 78 75 72 70 68 66 63 62 63 61 57 56 58 58 58 58 56 54 54 54 53 52 52 51 50 48 46 46 45 44 42 40 39 37 36 35 34 32 30 29 26 23 20 19 15 12 7 3 357 352 347 341 335 338 350 352 11 356 1 15 9 10 6 3 1 355 353 8 357 352
25 36 75 90 75 72 81 87 86 80 89 88 86 84 80 77 74 72 72 70 68 66 63 62 62 60 57 58 62 61 60 59 59 58 57 55 54 52 51 50 48 46 46 45 44 43 41 39 37 35 33 32 31 29 27 24 22 19 16 14 11 7 3 357 354 345 341 357 2 355 3 12 345 341 354 4 4 3 360 357 356 2 354 4 5
23 16 75 78 77 82 83 91 94 91 86 85 85 82 78 75 73 73 73 72 70 69 67 65 65 63 62 61 61 62 62 62 61 59 58 57 55 53 51 50 48 47 45 45 44 43 41 39 36 34 32 31 29 27 24 22 20 17 15 12 9 6 2 357 353 347 350 11 348 358 5 2 343 331 347 359 357 357 357 355 353 356 357 353 0
6 9 86 84 81 88 87 86 88 85 86 85 83 81 78 76 74 72 72 72 72 72 68 68 66 66 64 63 64 64 63 62 60 59 58 57 55 53 51 49 47 46 44 43 42 41 39 37 35 32 30 29 26 24 22 19 16 15 13 9 7 3 359 355 351 351 358 2 345 1 353 356 334 323 356 355 353 353 354 352 350 350 355 354 353
8 24 87 79 79 80 81 84 85 84 85 85 83 80 78 77 76 75 73 73 73 71 70 69 68 68 67 66 64 63 61 61 60 58 57 56 54 52 51 49 47 45 44 42 40 39 37 35 33 30 28 26 24 22 19 16 15 12 10 8 5 2 357 352 347 357 355 357 343 1 347 341 332 346 356 351 347 348 350 350 344 346 348 351 348
12 40 61 68 77 79 78 79 79 79 80 81 79 77 77 77 77 76 76 76 74 73 73 72 71 70 68 66 64 63 61 60 59 58 57 56 54 53 51 50 47 45 43 41 39 37 35 33 31 29 26 24 22 20 17 14 12 10 8 7 3 360 355 349 345 352 348 348 346 352 344 349 340 11 350 347 345 344 346 343 341 340 341 342 342
35 33 54 53 53 64 72 75 75 76 78 76 75 77 79 78 78 78 79 78 77 76 75 74 72 70 68 66 64 63 61 60 58 57 56 55 53 52 50 49 46 44 42 40 37 34 31 29 27 24 22 20 18 16 13 11 10 8 6 3 1 358 352 346 341 339 344 349 349 344 340 347 339 4 345 344 343 342 341 339 337 339 339 340 339
31 39 53 51 49 51 63 69 69 69 71 72 76 78 79 80 79 79 79 79 78 77 76 75 73 72 69 67 65 64 62 60 57 56 55 53 51 49 48 45 43 41 39 36 33 30 27 25 23 21 19 17 14 12 10 8 7 6 3 0 358 356 352 344 339 334 349 348 355 340 340 341 349 348 346 340 340 339 338 336 336 337 337 338 338
24 32 57 54 48 54 63 70 70 71 72 76 76 78 80 80 79 79 79 79 78 77 75 74 73 71 70 68 67 65 62 59 57 55 53 51 48 46 45 43 40 38 35 31 28 26 23 21 19 17 15 13 9 8 6 5 4 4 2 359 357 356 352 348 335 338 341 348 359 332 336 334 352 348 343 339 337 336 336 334 334 334 335 335 335
32 30 58 57 53 50 54 58 67 71 76 76 77 78 79 80 80 79 79 78 78 76 75 73 72 71 70 69 67 66 63 60 56 54 51 50 48 46 43 41 37 34 30 27 25 22 19 16 14 12 10 7 5 1 0 1 1 0 359 358 355 355 350 348 337 338 334 0 354 323 342 328 341 345 338 336 335 334 333 333 332 332 333 333 332
30 50 77 74 68 62 59 59 62 68 72 73 74 76 77 78 79 78 77 77 76 75 74 73 72 70 70 70 69 67 64 61 58 55 52 49 47 44 41 37 34 30 27 23 21 18 14 11 9 5 2 359 357 355 352 352 354 355 354 354 353 353 347 339 329 324 340 350 337 326 343 328 347 339 336 335 334 332 331 329 331 332 332 334 333
9 63 77 82 84 80 79 71 66 65 64 67 71 74 76 77 77 76 76 76 75 74 73 71 71 71 71 71 69 67 65 62 60 56 52 48 43 40 37 34 31 27 23 19 16 13 9 6 3 360 356 354 353 352 349 344 345 349 350 350 350 348 344 336 322 345 336 331 317 353 331 356 344 335 335 334 334 330 330 330 331 333 335 332 329
60 48 68 89 101 100 86 87 85 71 64 65 68 71 74 74 73 74 74 74 73 71 71 72 72 72 72 71 69 67 65 62 59 55 50 46 40 34 32 30 27 22 18 15 11 8 5 1 359 357 355 353 352 351 348 344 345 349 349 350 348 343 341 330 341 334 322 322 354 348 331 355 336 336 335 335 333 333 331 333 338 340 335 333 330
49 87 69 69 63 63 88 118 97 89 74 59 62 68 71 72 71 72 72 70 70 70 70 70 71 72 72 71 69 67 64 61 57 52 47 42 37 32 27 23 21 17 12 10 7 4 1 358 356 355 353 352 350 348 346 344 345 347 346 347 345 339 336 360 337 328 313 332 348 325 352 331 336 335 335 334 335 334 333 337 340 340 338 337 336
68 59 61 62 68 69 60 52 69 73 73 71 58 66 71 70 70 69 68 69 70 70 68 66 64 65 69 71 70 66 63 60 57 50 43 37 34 25 19 16 15 13 6 1 359 358 357 355 352 350 349 347 345 344 344 344 345 343 343 344 341 341 358 358 334 320 320 328 317 324 306 325 335 335 335 334 335 334 332 333 335 334 334 335 336
81 81 67 49 51 69 63 60 64 74 79 84 79 74 70 70 69 69 69 68 68 73 74 70 60 55 63 62 64 64 54 42 43 45 37 34 29 21 13 4 4 3 2 353 346 346 348 348 345 343 345 343 341 343 343 344 345 341 343 343 341 344 347 342 324 317 311 317 311 323 310 323 331 334 334 333 334 334 333 336 335 334 334 335 334
68 92 88 72 56 64 69 61 64 74 81 81 90 95 95 86 78 71 68 69 68 62 58 50 42 18 5 41 50 57 56 46 24 21 30 43 24 15 352 339 344 349 351 351 338 338 338 340 338 338 341 343 344 344 339 343 343 342 345 342 342 340 330 325 314 306 303 305 307 300 313 317 329 333 332 331 333 335 334 339 337 335 338 337 336
79 70 89 95 85 65 70 74 73 73 73 86 106 82 63 67 72 63 63 49 46 54 44 38 23 4 17 44 48 49 66 55 37 351 314 328 318 310 299 312 316 326 331 346 344 348 345 342 342 343 343 344 345 343 331 339 337 340 342 337 340 329 319 314 308 301 299 297 301 298 311 315 326 333 330 329 332 335 335 337 337 337 339 338 337
83 70 68 90 89 84 77 87 106 114 103 93 89 101 122 126 119 116 96 84 71 52 38 37 19 13 15 38 38 9 358 115 11 303 292 300 289 282 293 292 304 301 307 342 342 348 345 342 342 344 344 341 344 334 335 332 322 327 330 325 329 320 317 311 308 301 296 295 296 303 311 314 323 332 329 328 330 335 335 336 335 337 337 337 337
68 88 109 92 92 86 80 77 73 71 71 81 77 73 79 70 66 88 102 93 90 90 73 53 26 21 13 37 33 357 330 40 5 323 334 322 297 300 305 305 293 320 333 342 333 344 341 331 331 339 340 332 332 329 327 323 316 316 320 314 319 317 317 312 305 302 300 299 299 309 313 312 320 330 328 326 328 333 336 339 340 340 341 339 339
122 101 77 84 90 98 90 72 54 55 94 60 51 48 81 66 62 61 60 51 36 41 60 67 47 17 14 351 318 342 331 52 44 2 337 323 338 344 334 329 333 331 332 346 334 335 332 322 322 334 331 331 328 325 324 317 316 314 311 308 313 314 314 311 305 305 303 302 302 312 313 309 316 325 328 325 324 330 336 340 342 342 343 342 341
62 92 96 86 74 76 96 89 64 30 54 99 121 76 63 56 39 28 65 64 63 56 54 54 39 26 347 2 355 7 359 12 16 351 331 323 343 338 328 322 334 331 338 349 336 336 329 322 328 330 334 332 325 320 316 316 319 313 304 305 309 309 309 306 304 302 302 304 301 311 310 312 318 320 327 322 318 327 334 337 338 340 341 341 341
70 69 64 79 85 74 65 89 104 90 59 95 78 59 55 64 58 35 41 6 41 52 35 45 72 63 23 12 3 348 358 353 12 348 334 335 346 325 323 321 334 332 336 356 335 334 329 323 327 332 344 337 331 324 314 322 312 309 307 303 306 308 310 304 300 297 298 302 298 305 314 322 311 321 327 316 312 324 332 335 338 340 342 343 341
73 88 89 87 101 118 127 113 111 109 109 89 90 73 81 77 66 57 49 337 39 40 43 43 326 87 59 19 10 349 351 346 353 353 333 335 329 317 325 330 343 331 347 346 330 336 332 325 325 340 338 332 324 317 313 316 310 312 310 305 308 312 306 300 294 292 293 293 293 293 310 244 311 320 324 313 306 317 328 334 339 341 344 344 342
84 82 88 80 66 94 100 108 96 71 64 59 61 65 66 50 43 83 65 335 44 42 325 344 45 58 75 43 358 354 341 337 345 353 336 332 326 323 346 335 340 337 356 334 335 341 326 316 322 336 335 325 314 306 307 309 315 312 309 310 312 309 303 299 293 292 291 289 287 284 297 322 293 317 320 314 307 313 325 333 338 341 344 343 340
102 106 109 133 149 107 86 61 54 53 22 48 75 107 113 78 45 62 191 56 54 257 299 50 25 51 54 35 339 323 325 325 342 349 340 324 319 327 348 332 340 348 356 330 324 333 314 313 330 338 327 314 308 304 307 312 316 308 307 311 310 306 307 302 298 296 299 298 292 286 330 325 228 294 315 317 314 316 327 332 336 339 340 339 335
132 131 104 72 73 77 70 75 64 32 47 58 17 56 50 86 140 135 60 57 332 305 39 30 24 74 67 31 336 345 346 324 351 341 333 316 313 333 323 332 347 0 345 320 319 322 315 320 350 329 317 312 313 308 317 317 310 309 306 312 312 313 310 303 300 310 312 302 296 306 331 337 220 283 304 318 319 321 324 327 332 335 335 334 334
121 120 116 149 158 124 109 122 126 53 8 110 91 74 73 75 301 85 72 39 311 350 1 50 9 100 111 95 355 347 327 328 5 338 327 317 312 325 319 353 5 355 331 314 319 329 321 345 342 324 315 323 317 314 316 313 307 304 313 314 318 315 306 302 308 314 307 303 301 322 360 337 295 253 270 301 324 335 328 322 328 333 335 334 334
92 103 124 134 126 122 118 120 101 105 351 105 130 85 132 182 153 102 111 231 281 349 33 354 43 329 117 102 29 333 340 346 352 334 325 316 317 326 339 5 14 347 321 314 332 324 338 359 333 328 323 324 319 314 314 308 306 308 320 324 320 311 302 302 306 311 311 307 315 358 341 320 305 341 338 331 334 329 327 329 330 330 331 332 333
138 117 141 146 102 65 49 71 53 89 27 350 19 88 97 65 51 82 131 316 343 358 235 309 91 304 15 108 59 352 338 349 346 324 325 317 325 338 352 7 4 336 317 320 333 325 356 354 330 329 325 327 321 318 320 317 306 311 328 326 314 305 301 297 303 305 307 307 321 345 326 328 334 347 334 343 329 329 336 333 329 329 331 333 335
158 143 187 122 124 139 88 109 70 101 149 269 43 41 1 27 339 42 90 57 323 301 337 31 21 344 36 95 73 357 322 356 336 331 325 317 335 344 355 1 358 331 321 322 333 342 356 347 332 330 326 326 321 316 321 313 309 322 329 323 310 302 297 296 304 304 305 306 332 354 343 334 344 348 337 336 344 359 343 334 330 332 333 335 337
207 140 103 142 139 119 112 83 137 144 174 76 2 309 292 177 220 95 320 102 308 296 299 83 13 11 12 62 61 354 311 6 344 343 337 325 340 332 346 355 2 331 320 329 344 350 348 349 332 329 334 328 321 317 316 311 311 324 324 314 305 299 300 309 303 297 298 312 344 13 2 355 347 336 339 339 358 358 346 336 332 334 335 336 335
155 143 146 176 127 108 111 123 177 198 225 176 166 118 347 343 323 273 148 119 250 282 325 45 9 330 55 59 33 339 324 26 358 351 342 336 338 335 351 1 357 331 326 331 345 352 354 343 330 328 339 322 319 317 316 309 318 323 318 309 303 306 308 308 300 286 305 339 23 15 360 345 331 330 330 342 358 359 352 344 337 335 335 334 330
96 143 151 156 187 146 169 196 220 162 210 134 173 152 231 202 231 252 212 227 220 290 298 75 307 42 62 61 28 339 5 20 10 354 347 334 342 328 350 356 348 342 336 334 337 349 347 342 328 331 335 325 320 318 314 318 328 322 310 303 309 313 303 299 289 286 303 35 28 9 349 328 329 325 330 355 2 3 359 357 347 342 341 335 330
162 171 130 130 91 131 159 155 169 223 201 199 159 201 263 268 250 239 207 217 240 214 141 314 242 75 66 32 47 340 15 17 359 355 338 354 339 342 350 338 1 346 349 333 336 340 342 335 336 330 327 316 315 313 313 325 328 312 303 310 317 304 298 288 285 267 350 81 28 8 348 325 330 321 334 2 8 2 359 349 343 353 343 338 330
182 180 157 151 182 175 180 170 189 208 203 170 169 207 223 224 216 224 236 245 253 204 170 184 100 82 66 50 22 355 36 352 359 356 6 358 347 347 344 342 358 353 353 335 331 334 341 340 334 329 326 324 315 309 320 331 315 305 308 312 304 301 294 295 284 275 54 24 7 348 327 320 341 326 337 359 1 2 346 334 354 348 339 337 333
194 177 158 168 191 192 172 204 200 194 155 193 211 210 224 306 256 233 52 83 24 7 287 125 86 105 72 56 4 44 17 355 21 357 7 358 356 347 351 338 349 356 343 325 317 332 339 347 329 333 333 327 321 322 327 336 320 310 295 290 304 293 301 310 28 38 6 350 334 324 312 7 336 320 313 351 357 346 334 347 348 343 327 328 324
200 185 182 191 192 198 180 198 197 161 198 222 92 62 150 135 124 290 54 338 357 15 9 63 98 108 95 58 43 32 6 28 24 355 347 15 10 351 352 338 345 345 332 320 332 337 345 350 339 334 340 325 321 329 336 338 333 339 331 326 294 294 302 16 46 9 359 334 317 319 352 349 314 304 337 3 350 342 334 344 339 326 320 323 322
183 182 193 189 186 183 183 191 202 172 177 157 101 252 81 73 66 353 27 303 277 246 120 97 73 86 96 75 63 30 24 23 34 8 1 9 16 6 350 340 337 341 336 331 341 338 351 345 350 345 330 325 317 324 339 341 321 330 303 294 330 332 333 330 10 5 331 312 344 343 334 340 322 331 338 346 338 327 330 327 315 309 313 319 324
202 178 169 186 185 180 186 190 219 158 148 141 161 91 83 73 80 240 254 209 244 337 59 110 109 77 95 92 73 48 20 33 34 30 14 359 7 12 358 337 332 341 338 339 337 335 349 350 351 345 333 326 334 321 336 329 348 338 344 351 300 311 322 15 334 317 295 319 354 340 343 334 315 321 330 330 329 329 316 308 306 306 317 324 322
186 200 171 175 197 193 193 175 183 168 174 133 150 135 107 230 241 259 273 329 336 351 44 70 168 159 88 75 81 51 42 49 34 19 26 0 358 357 7 340 337 342 347 341 330 336 353 353 347 341 341 328 324 325 325 335 347 335 308 336 336 318 306 312 326 305 339 358 325 323 343 331 323 327 338 332 331 320 308 310 311 324 326 327 317
178 194 178 191 187 195 150 121 126 98 130 143 141 82 78 18 6 3 358 353 353 35 63 92 43 58 87 125 105 77 47 58 58 31 16 11 357 348 3 349 344 342 344 336 328 351 349 345 343 340 329 326 317 327 321 330 340 321 345 7 297 288 320 322 335 307 347 277 322 339 315 321 317 336 338 331 323 316 318 321 326 329 327 318 313
206 171 155 133 96 81 85 103 138 154 89 88 79 58 240 242 230 316 27 343 313 9 59 59 56 27 71 44 125 89 68 68 52 53 18 9 354 352 3 350 345 339 334 338 344 347 337 337 343 337 322 323 340 322 324 325 331 337 351 339 332 320 323 328 314 312 312 316 299 330 321 324 333 333 326 318 323 329 326 330 331 323 316 309 310
145 105 101 103 127 134 127 146 205 82 86 91 102 296 344 342 27 133 234 295 80 41 67 64 80 62 51 52 54 123 93 75 70 55 29 20 356 350 355 352 341 327 333 346 348 336 334 341 339 328 322 328 327 324 323 335 348 322 343 329 332 328 309 299 294 300 306 314 323 328 318 338 317 320 320 325 329 326 332 327 318 314 307 308 310
104 110 126 128 115 107 101 90 64 88 101 84 135 135 43 34 30 42 29 8 48 73 89 87 98 100 88 26 353 114 118 119 108 81 49 29 3 341 348 351 337 327 349 358 344 339 345 342 336 333 325 328 343 339 338 331 341 327 336 337 336 311 314 311 316 336 324 318 308 334 327 326 312 308 324 322 322 331 318 308 301 299 300 309 321
90 100 97 103 102 101 106 96 93 102 114 102 70 63 39 8 47 57 46 26 34 358 70 65 37 18 64 40 31 52 62 60 50 79 53 27 1 339 355 353 340 341 3 351 342 341 347 340 333 329 330 351 353 336 331 341 343 332 343 335 331 330 327 326 325 323 314 305 309 322 331 332 325 317 331 328 328 322 311 301 296 293 299 307 318
119 117 120 108 110 116 121 132 108 73 67 71 80 85 59 33 54 53 57 59 22 32 35 32 23 21 34 26 14 14 42 53 45 31 47 19 355 349 356 352 347 354 354 351 340 347 346 335 328 331 333 353 339 335 358 346 335 339 337 337 335 333 327 325 327 332 329 321 319 312 317 316 311 312 324 328 322 315 305 308 303 295 299 321 329